DOTTIGNIES (Bel)HUYS LAURENS a le mot de la fin, VAN HAVERBEKE 3ème

T’as le bonjour de Dottignies Alfred

Pour rendre hommage au Bourgmestre décédé tragiquement, Marc Duquesnoy et son équipe organisaient un Mémorial Alfred Gadenne pour les Espoirs et élites sans contrat.

Grosse réussite car plusieurs équipes candidates n’ont pas pris le départ, le peloton étant plein.

143 kilomètres à parcourir pour les 145 partants de 26 équipes dans lesquelles de nombreux jeunes qui se sont illustrés sur ces mêmes routes de la Ronde de Dottignies.

Pour les Français, Dunkerque et Douai faisaient le déplacement.

 

Dans les rangs des partants : le Champion de Belgique Espoirs Jordi Van Dingenen, l’équipe Lotto U23, bien entendu Ago Aqua service chère à Marc Duquesnoy et plusieurs équipe continentales.
Du coté de l’organisation : 180 signaleurs, 45 véhicules, 14 motos et 40 membres du Vélo Club de Dottignies !

Une course retardée à cause d’une inondation sur une partie du circuit local devenue impraticable. Une solution de modification du parcours fut vite trouvée et mise en place grâce à la bonne communication entre l’organisation et la police et le départ fût donné par madame Gadenne.

 

Avec une moyenne horaire de  44,3 km/h, on se doute que ce n’était pas une sortie tranquille sur ces petites routes entre Dottignies et le mont Saint Aubert pour le grand circuit et sur les ‘ hauteurs ‘ de Dottignies pour les boucles locales.

 

D’entrée de jeu, les attaques fusent en tête de peloton sans pouvoir prendre plus de 100 mètres. Il faut attendre le kilomètre 50 pour que le peloton éclate sur le col de la croix Jubaru et sa descente et qu’ un groupe de 27 coureurs se détache. Leur avance fluctue entre 12 secondes et 25 secondes avant que des garçons comme Jordi Van Dingenen tente de revenir du peloton vers le groupe de tête sans succès. A partir de ce moment, l’écart augmente et monte vers la minute. Le groupe de tête allait perdre quelques éléments sur crevaison ( vites dépannés par les véhicules d’assistance ) et c’est sur le circuit local que tout allait éclaté façon puzzle ; premier groupe à se détacher : Van Poucke, Van Driessche, Deprez, Bastiaens et Vandebogaerde. Il faut attendre le 3ème passage  pour le Huys sorte poursuivi à 15 secondes par Grignard et Verhulst eux même chassé par un trio mené par Vandenbogaerd et Bastiaens suivis à 24 secondes par Cools, Van Driessche et Van Haverbeke.

C’est à ce moment qu’une petite averse fait son apparition et que l’on découvre au bout de la ligne d’arrivée le vainqueur se présentant seul : Laurens Huys suivi à 5 secondes par Kjell Van Driessche. (Reportage Philippe SEYS / JMH)

Julien Van Haverbeke règle le groupe de chasse. 73 abandons ou hors délai avant d’aborder le circuit local.

 

os. UCI Id NOM et Prénom Nation Eqpe Temps Ecart

Classement individuel du jour au temps ( source FCWB Hainaut que je remercie )

1 6 10014950108 HUYS LAURENS BEL LOT 03:13:40 00:00:00

2 8 10008200221 VAN DRIESSCHE KJELL BEL EFC 03:13:45 00:00:05

3 29 10007776653 VAN HAVERBEKE JULIEN FRA DUN 03:13:49 00:00:09

4 79 10007078152 VANDENBOGAERD JENS BEL DVE 03:13:49 00:00:09

5 1 10015675281 CASSAERT LORAN BEL LOT 03:13:49 00:00:09

6 37 10007825961 COOLS MICHAEL BEL PCW 03:13:49 00:00:09

7 11 10014922220 VERHULST LOTHAR BEL EFC 03:13:49 00:00:09

8 4 10015600816 GRIGNARD SEBASTIEN BEL LOT 03:13:50 00:00:10

9 109 10013798434 BASTIAENS AYCO BEL UCT 03:13:50 00:00:10

10 7 10014305460 LEYMAN CELESTIN BEL EFC 03:14:08 00:00:28

11 49 10014112066 DEPREZ TUUR BEL VLT 03:14:31 00:00:51

12 22 10010040692 MOLLY KENNY BEL AGO 03:14:31 00:00:51

13 19 10009805872 ARIMONT CHARLIE BEL AGO 03:14:39 00:00:59

14 10 10011139624 WEEMAES SASHA BEL EFC 03:14:39 00:00:59

15 136 10018042088 ROSSEEL RICKY BEL VDM 03:14:39 00:00:59

16 3 10014890793 APERS RUBEN BEL LOT 03:14:39 00:00:59

17 41 10015822603 LAMB ROSS GBR PCW 03:14:39 00:00:59

18 12 10015007496 VERSCHAEVE VIKTOR BEL EFC 03:14:39 00:00:59

19 50 10010779815 D HEYGERE GIL BEL VLT 03:14:39 00:00:59

20 21 10013798232 DEBUY ANTHONY BEL AGO 03:14:39 00:00:59

21 81 10002813990 CAETHOVEN STEVEN BEL DVE 03:14:39 00:00:59

22 133 10007725325 D HAENE BRECHT BEL VDM 03:14:44 00:01:04

23 2 10014218463 CASTRIQUE JONAS BEL LOT 03:14:47 00:01:07

24 42 10009126771 LEWIS ADAM GBR PCW 03:16:41 00:03:01

25 114 10049029844 FRANKEN MARC BEL UCT 03:16:41 00:03:01

26 13 10009803044 VANDINGENEN JORDI BEL SOE 03:16:41 00:03:01

27 20 10016305074 PAQUOT TOM BEL AGO 03:16:41 00:03:01

28 36 10013528854 DESY GERTDAN BEL PRO 03:16:41 00:03:01

29 24 10014278279 GOEBERT PIERRE BEL AGO 03:16:41 00:03:01

30 30 10014307379 WATRTELOT JEAN LOU FRA DUN 03:16:41 00:03:01

31 68 10011046866 COURTENS IGOR BEL GAV 03:16:50 00:03:10

32 102 10011239957 ANECA CISKE BEL TAG 03:17:10 00:03:30

33 98 10015292436 VERBEECK QUINTEN BEL TAG 03:17:10 00:03:30

34 39 10012947258 DECOSTER MERLIJN BEL PCW 03:17:10 00:03:30

35 67 10006466749 BREYNE JONATHAN BEL GAV 03:17:13 00:03:33

36 129 10011015847 REX LAURENZ BEL CRA 03:17:13 00:03:33

37 122 10014857451 VOIGT ERIC USA BAG 03:17:13 00:03:33

38 139 10026742375 BIGO MATHIAS FRA ESG 03:17:16 00:03:36

39 112 10036444500 WARD TANNER USA UCT 03:17:16 00:03:36

40 14 10008640559 VANDEWIELE FREDERIK BEL SOE 03:17:27 00:03:47

41 99 10014039217 DEBOODT BRUCE BEL TAG 03:17:27 00:03:47

42 72 10011626543 DELEU ROBBE BEL GAV 03:17:27 00:03:47

43 123 10009325421 ODDI ANDERS NOR BAG 03:17:27 00:03:47

44 143 10013217949 VAN ESLANDER FLORIAN FRA ESG 03:17:27 00:03:47

45 5 10015687611 VANHOOF WARD BEL LOT 03:17:27 00:03:47

46 35 10011143058 RIETJANS SANDER BEL PRO 03:17:27 00:03:47

47 40 10014054573 WALSH EDWARD CAN PCW 03:17:27 00:03:47

48 18 10014278683 PRUVOOST SHAYNE BEL SOE 03:17:27 00:03:47

49 17 10012870870 VAN DE WALLE MATTHIAS BEL SOE 03:17:27 00:03:47

50 125 10010972502 MOORS OLIVER GBR BAG 03:17:27 00:03:47

51 134 10013374664 VOLKAERT JONAS BEL VDM 03:17:27 00:03:47

52 52 10015512607 VANTRICHT STAN BEL VLT 03:17:27 00:03:47

53 108 10016224343 ERNST ROBIN BEL PCL 03:17:27 00:03:47

54 33 10014218261 DE HAES JORDEN BEL PRO 03:17:27 00:03:47

55 23 10015687106 VAN VUCHELEN TOM BEL AGO 03:17:27 00:03:47

56 71 10016315784 OVERVLIET JAY NED GAV 03:17:27 00:03:47

57 97 10015790873 COCKAERT KELVIN BEL TAG 03:17:27 00:03:47

58 86 10006898805 RAEYMAEKERS MATHIAS BEL ANT 03:17:27 00:03:47

59 9 10016139164 DESAL CERIEL BEL EFC 03:17:27 00:03:47

60 132 10014804507 HOUBBEN ADRIEN BEL CRA 03:17:27 00:03:47

61 110 10012406987 VANDEBESIEN THOMAS BEL UCT 03:17:27 00:03:47

62 131 10015841700 RENSON VINCENT BEL CRA 03:17:27 00:03:47

63 27 10007969340 LELEU ANTOINE BEL DUN 03:17:36 00:03:56

64 111 10013897858 MOONS STEVEN BEL UCT 03:17:36 00:03:56

65 43 10007053193 BOUTTE KENZIE BEL IEP 03:17:36 00:03:56

66 113 10015599196 DUFOUR JENS BEL UCT 03:17:36 00:03:56

67 25 10014276057 DOURLENS CHARLES ANTOIN FRA DUN 03:17:36 00:03:56

68 28 10002840565 MONCOMBLE NICOLAS FRA DUN 03:17:36 00:03:56

69 146 10011739711 DE MAREZ RUBEN BEL DOV 03:17:36 00:03:56

70 106 10015004264 ALLARD FRANCOIS BEL PCL 03:17:36 00:03:56

71 147 10012390015 LAPIERE WARD BEL DOV 03:17:36 00:03:56

72 121 10014890490 TRIO MAXIME BEL BAG 03:19:08 00:05:28

 

Après la cérémonie protocolaire , Marc Duquesnoy remercie ses partenaires, amis et membres du club autour du verre de l’amitié. L’occasion pour lui une fois encore d’annoncer que la 50ème ronde de Dottignies sera sa dernière et qu’il souhaite pour 2019 une épreuve Pro dans ses murs. Tout laisse à penser que James Odvart ( Direct Vélo ) serait partant à reprendre une partie du très gros programme des sportifs de Dottignies sous une forme qui reste à déterminer.

 

Pour rappel, les prochains rendez-vous sont pour ces dames avec le GP Damien Yzerbyt – le 29/03 – ( dames élites et juniores ) ainsi que le Grand prix UCI féminin le 2 avril.

 

Pour conclure : une très belle course, bien animée et si le départ semblait assez vide de spectateurs, c’est que ceux-ci s’étaient massés dans les endroits stratégiques.